Regional Weather Roundup
Issued by NWS Upton, NY

Current Version | Previous Version | Graphics & Text | Print | Product List | Glossary Off
Versions: 1 2 3 4 5 6 7 8 9 10 11 12 13 14 15 16 17 18 19 20 21 22 23 24 25 26 27 28 29 30 31 32 33 34 35 36 37 38 39 40 41 42 43 44 45 46 47 48 49 50

000
ASUS41 KOKX 270508
RWROKX

REGIONAL WEATHER ROUNDUP
NATIONAL WEATHER SERVICE NEW YORK NY
1200 AM EST MON FEB 27 2017

NOTE: "FAIR" INDICATES FEW OR NO CLOUDS BELOW 12,000 FEET WITH NO
SIGNIFICANT WEATHER AND/OR OBSTRUCTIONS TO VISIBILITY.

NYZ071-072-176-178-NJZ106-104-270600-
NEW YORK CITY METRO AREA

CITY           SKY/WX    TMP DP  RH WIND       PRES   REMARKS
Central Park   CLEAR     36  16  44 W7        30.29R WCI  30
Wall St Helipt NOT AVBL
LaGuardia APRT CLEAR     39  14  36 W10       30.27R WCI  32
Kennedy INTL   CLEAR     37  17  44 W13       30.29R WCI  29
Breezy Point     N/A     36 N/A N/A W9          N/A  WCI  29
Newark/Liberty CLEAR     33  17  51 SW7       30.28R WCI  27
Teterboro      CLEAR     36  16  44 SW6       30.27R WCI  31
$$

NYZ177-179-078>081-270600-
LONG ISLAND NEW YORK

CITY           SKY/WX    TMP DP  RH WIND       PRES   REMARKS
Jones Beach      N/A     37 N/A N/A W10         N/A  WCI  30
Matinecock PT  NOT AVBL
Farmingdale    CLEAR     33  18  53 W6        30.27R WCI  28
MacArthur/ISP  CLEAR     29  19  66 W6        30.27R WCI  23
Shirley        CLEAR     27  20  75 SW5       30.28R WCI  22
Westhampton    CLEAR     22  14  71 CALM      30.28R
Southampton    NOT AVBL
Bridgehampton  NOT AVBL
East Hampton     N/A     29  17  62 CALM      30.25R
Montauk        NOT AVBL
$$

NYZ052-065-067-270600-
HUDSON VALLEY

CITY           SKY/WX    TMP DP  RH WIND       PRES   REMARKS
White Plains   CLEAR     32  15  49 W5        30.23R WCI  27
Newburgh       CLEAR     28  19  69 SW6       30.23R WCI  22
Montgomery     CLEAR     27  20  75 SW3       30.22R
Poughkeepsie   CLEAR     29  17  61 CALM      30.23R
Albany         PTCLDY    24  17  74 S3        30.19R
$$

NJZ001-105-106-008-010-013-015-019>022-104-270600-
NEW JERSEY

CITY           SKY/WX    TMP DP  RH WIND       PRES   REMARKS
Newark/Liberty CLEAR     33  17  51 SW7       30.28R WCI  27
Teterboro      CLEAR     36  16  44 SW6       30.27R WCI  31
Caldwell       CLEAR     32  16  51 VRB3      30.27R
Somerville     CLEAR     25  18  74 CALM      30.27R
Linden         NOT AVBL
Sussex         CLEAR     24  19  81 CALM      30.24R
Andover          N/A     27  18  69 CALM      30.25R
Trenton        CLEAR     33  17  51 CALM      30.28R
Millville      CLEAR     24  22  91 CALM      30.32R
Atlantic City  CLEAR     30  19  63 CALM      30.32R
Wrightstown    CLEAR     26  18  71 CALM      30.27R
Toms River     CLEAR     22  18  85 CALM      30.31R
Belmar         CLEAR     30  19  63 SW3       30.30R
$$

PAZ047>061-062-071-270600-
EASTERN PENNSYLVANIA

CITY           SKY/WX    TMP DP  RH WIND       PRES   REMARKS
Philadelphia   CLEAR     34  17  50 SW5       30.31R WCI  30
Allentown      CLEAR     28  16  60 S3        30.26S
Scranton       CLEAR     30  17  58 SW6       30.20S WCI  24
$$

CTZ002-004>006-009-010-012-RIZ004-006-007-MAZ004-011-015-270600-
SOUTHERN NEW ENGLAND
 IN CT

CITY           SKY/WX    TMP DP  RH WIND       PRES   REMARKS
Bradley INTL   CLEAR     28  19  69 S6        30.22R WCI  22
Hartford       PTCLDY    29  20  69 SE5       30.23R WCI  24
Danbury        CLEAR     29  16  58 SW6       30.24R WCI  23
Wtrbury/Oxford CLEAR     30  14  51 W7        30.22R WCI  23
Bridgeport     CLEAR     34  19  54 W5        30.25R WCI  30
Meriden        CLEAR     25  18  74 S3        30.24R
New Haven      CLEAR     35  18  49 W6        30.25R WCI  30
Chester          N/A     30  16  55 VRB3      30.22R
Groton         CLEAR     31  18  58 W5        30.24R WCI  26
Wilimantic     CLEAR     28  20  71 CALM      30.23R

 IN RI

CITY           SKY/WX    TMP DP  RH WIND       PRES   REMARKS
Providence     CLEAR     28  17  63 S5        30.23R WCI  23
Block Island   CLEAR     35  20  54 W10       30.25R WCI  27
Westerly       CLEAR     31  17  56 W3        30.24R
 IN MA

CITY           SKY/WX    TMP DP  RH WIND       PRES   REMARKS
Boston         PTCLDY    32  17  54 SW13      30.20R WCI  22
Worcester      CLEAR     27  15  61 W10       30.14R WCI  17
Westfield      CLEAR     26  19  74 SW6       30.20R WCI  19
Provincetown   CLEAR     35  19  52 W15G23    30.20R WCI  25
Nantucket      CLEAR     34  17  50 NW13      30.21R WCI  25
$$

ANZ330-335-338-340-345-350-353-355-270600-
COASTAL MARINE OBSERVATIONS


STATION/POSITION TIME  SKY/WX   TEMP    WIND        PRES    VSBY  WAVE
                                AIR SEA DIR/SP/G                  HT/PER
                 (UTC)          (F)     (DEG/KT/KT) (MB)    (MI)  (FT/S)
NY HARB ENTRANCE 0350            39 42  270/ 14/ 16 1024.6          3/10
20 S FIRE ISLAND 0450            40 43  290/ 16/ 17 1025.1          4/10
GREAT SOUTH BAY  NOT AVBL
23 SSW MONTAUK P 0450            38 44              1025.0          4/ 9
15 E BARNEGAT LI 0430               44                N/A           3/10
HUDSON CANYON    0450               47              1025.6          6/ 7
KINGS POINT      0448            38 40              1025.0
EXECUTION ROCKS  NOT AVBL
CENTRAL LI SOUND 0430            37     270/ 12/ 16   N/A           2/ 4
EASTERN LI SOUND NOT AVBL
ROBBINS REEF     0448            35     250/ 10/ 12 1025.5
$$


>>>>>>>>>>>>>>>>>>>>>>>>>>>> KEY <<<<<<<<<<<<<<<<<<<<<<<<<<<
>                                                          <
>     SKY/WX - Sky Condition/Present Weather               <
>     TMP    - Temperature in Fahrenheit                   <
>     DP     - Dew Point in Fahrenheit                     <
>     RH     - Relative Humidity in Percent                <
>     WIND   - Direction (from) and Speed in MPH           <
>     PRES   - Mean Sea Level Pressure (inches of Hg)      <
>     WCI    - Wind Chill Index                            <
>     VSB    - VISIBILITY IN MILES                         <
>     HX     - HEAT INDEX                                  <
>     TC     - TEMPERATURE IN CELSIUS                      <
>     VRB    - VARIABLE WIND DIRECTION                     <
>                                                          <
>>>>>>>>>>>>>>>>>>>>>>>>>>>> KEY <<<<<<<<<<<<<<<<<<<<<<<<<<<



USA.gov is the U.S. government's official web portal to all federal, state and local government web resources and services.